EW7966 Weather Reports


Display with metric or nautical units.
time (UTC)temp
F
wind
direction
speed
MPH
gust
MPH
rain 1hr
in
rain 24hr
in
rain mn
in
humidity
%
barometer
mb
20200404081126 23 232 8.0 22.0 0.00 0.01 0.00 66 1015.2
20200404080620 23 186 11.0 22.0 0.00 0.01 0.00 65 1015.2
20200404080123 23 223 12.0 24.0 0.00 0.01 0.00 65 1015.4
20200404075619 23 180 13.0 22.0 0.00 0.01 0.00 65 1015.4
20200404075123 23 167 11.0 25.0 0.00 0.01 0.00 65 1015.6
20200404074619 23 191 15.0 29.0 0.00 0.01 0.00 64 1015.6
20200404074122 23 160 15.0 29.0 0.00 0.01 0.00 65 1015.7
20200404073620 23 169 15.0 29.0 0.00 0.01 0.00 64 1015.9
20200404073123 23 176 13.0 24.0 0.00 0.01 0.00 64 1015.8
20200404072619 23 171 13.0 22.0 0.00 0.01 0.00 64 1016.0
20200404072123 23 195 11.0 22.0 0.00 0.01 0.00 64 1016.0
20200404071618 23 227 12.0 22.0 0.00 0.01 0.00 64 1015.9
20200404071121 24 213 13.0 21.0 0.00 0.01 0.00 65 1015.9
20200404070620 24 161 11.0 22.0 0.00 0.01 0.00 65 1016.1
20200404070122 24 196 13.0 21.0 0.00 0.01 0.00 65 1015.9
20200404065619 24 167 8.0 19.0 0.00 0.01 0.00 65 1016.1
20200404065122 24 158 8.0 20.0 0.00 0.01 0.00 65 1016.2
20200404064619 24 173 10.0 20.0 0.00 0.01 0.00 65 1016.3
20200404064121 24 169 8.0 15.0 0.00 0.01 0.00 65 1016.4
20200404063620 24 187 8.0 18.0 0.00 0.01 0.00 65 1016.4
20200404063121 25 165 10.0 18.0 0.00 0.01 0.00 65 1016.4
20200404062619 25 139 10.0 16.0 0.00 0.01 0.00 65 1016.5
20200404062123 25 197 8.0 16.0 0.00 0.01 0.00 66 1016.6
20200404061619 25 148 9.0 18.0 0.00 0.01 0.00 65 1016.7
20200404061122 25 135 9.0 18.0 0.00 0.01 0.00 66 1016.7
20200404060620 25 163 10.0 16.0 0.00 0.01 0.00 66 1016.8
20200404060122 26 182 8.0 18.0 0.00 0.01 0.00 66 1016.7
20200404055620 26 182 9.0 18.0 0.00 0.01 0.01 65 1016.8
20200404055123 26 146 7.0 13.0 0.00 0.01 0.01 67 1016.8
20200404054620 26 171 8.0 13.0 0.00 0.01 0.01 67 1016.9
20200404054124 26 145 8.0 14.0 0.00 0.01 0.01 67 1016.9
20200404053621 27 164 9.0 14.0 0.00 0.01 0.01 67 1016.9
20200404053123 27 140 8.0 14.0 0.00 0.01 0.01 67 1016.9
20200404052619 27 146 8.0 19.0 0.00 0.01 0.01 68 1016.9
20200404052123 27 148 9.0 19.0 0.00 0.01 0.01 67 1016.9
20200404051620 28 168 8.0 15.0 0.00 0.01 0.01 68 1016.9
20200404051123 28 146 7.0 14.0 0.00 0.01 0.01 69 1016.9
20200404050621 28 164 8.0 14.0 0.00 0.01 0.01 70 1016.9
20200404050123 29 168 3.0 14.0 0.00 0.01 0.01 71 1016.8
20200404045619 29 149 5.0 14.0 0.00 0.01 0.01 70 1016.7
20200404045125 29 180 6.0 13.0 0.00 0.01 0.01 71 1016.7
20200404044619 29 203 7.0 13.0 0.00 0.01 0.01 72 1016.7
20200404044123 29 142 5.0 11.0 0.00 0.01 0.01 73 1016.7
20200404043621 29 211 4.0 11.0 0.00 0.01 0.01 74 1016.8
20200404043125 30 157 4.0 10.0 0.00 0.01 0.01 74 1016.8
20200404042620 30 142 3.0 10.0 0.00 0.01 0.01 75 1016.9
20200404042124 30 156 6.0 10.0 0.00 0.01 0.01 75 1016.9
20200404041620 30 167 4.0 10.0 0.00 0.01 0.01 76 1016.9
20200404041123 30 123 5.0 10.0 0.00 0.01 0.01 77 1016.9
20200404040621 30 156 6.0 10.0 0.00 0.01 0.01 78 1016.9
20200404040123 30 206 3.0 8.0 0.00 0.01 0.01 79 1016.8
20200404035620 30 180 2.0 7.0 0.00 0.01 0.01 79 1016.8
20200404035126 30 150 1.0 7.0 0.00 0.01 0.01 79 1016.9
20200404034619 30 182 4.0 8.0 0.00 0.01 0.01 78 1016.9
20200404034123 30 179 2.0 8.0 0.00 0.01 0.01 78 1016.8
20200404033621 30 187 1.0 4.0 0.00 0.01 0.01 78 1017.0
20200404033123 30 153 0.0 7.0 0.00 0.01 0.01 78 1017.0
20200404032620 30 167 2.0 7.0 0.00 0.01 0.01 77 1016.8
20200404032125 30 210 3.0 7.0 0.00 0.01 0.01 77 1016.9
20200404031620 30 163 2.0 5.0 0.00 0.01 0.01 77 1016.8
20200404031124 30 206 1.0 6.0 0.00 0.01 0.01 77 1016.8
20200404030621 30 180 1.0 6.0 0.00 0.01 0.01 77 1016.8
20200404030123 30 225 1.0 7.0 0.00 0.01 0.01 76 1016.8
20200404025619 30 190 4.0 7.0 0.00 0.01 0.01 76 1016.8
20200404025127 30 175 3.0 8.0 0.00 0.01 0.01 75 1016.7
20200404024619 30 198 5.0 9.0 0.00 0.01 0.01 75 1016.7
20200404024122 30 213 5.0 13.0 0.00 0.01 0.01 75 1016.6
20200404023621 30 168 7.0 13.0 0.00 0.01 0.01 75 1016.5
20200404023124 30 171 7.0 14.0 0.00 0.01 0.01 75 1016.5
20200404022619 30 189 7.0 14.0 0.00 0.01 0.01 75 1016.4
20200404022124 30 178 8.0 13.0 0.00 0.01 0.01 75 1016.4
20200404021620 30 213 6.0 13.0 0.00 0.01 0.01 75 1016.5
20200404021122 31 206 7.0 14.0 0.00 0.01 0.01 74 1016.4
20200404020621 30 160 7.0 14.0 0.00 0.01 0.01 74 1016.2
20200404020124 30 186 7.0 13.0 0.00 0.01 0.01 75 1016.2
20200404015619 30 200 7.0 13.0 0.00 0.01 0.01 75 1016.2
20200404015124 30 198 6.0 11.0 0.00 0.01 0.01 75 1016.2
20200404014619 30 179 5.0 10.0 0.00 0.01 0.01 75 1016.2
20200404014126 30 168 4.0 12.0 0.00 0.01 0.01 75 1016.2
20200404013621 30 217 5.0 12.0 0.00 0.01 0.01 74 1016.2
20200404013128 31 202 2.0 8.0 0.00 0.01 0.01 75 1016.3
20200404012620 31 198 1.0 7.0 0.00 0.01 0.01 75 1016.2
20200404012123 31 207 1.0 6.0 0.00 0.01 0.01 76 1016.3
20200404011620 31 231 2.0 7.0 0.00 0.01 0.01 75 1016.4
20200404011122 31 184 3.0 8.0 0.00 0.01 0.01 75 1016.3
20200404010621 31 234 2.0 9.0 0.00 0.01 0.01 76 1016.3
20200404010127 31 237 1.0 11.0 0.00 0.01 0.01 76 1016.3
20200404005620 31 158 3.0 10.0 0.00 0.01 0.01 75 1016.3
20200404005125 31 194 5.0 14.0 0.00 0.01 0.01 75 1016.3
20200404004620 31 161 5.0 14.0 0.00 0.01 0.01 75 1016.2
20200404004122 31 157 7.0 13.0 0.00 0.01 0.01 74 1016.3
20200404003621 31 153 6.0 9.0 0.00 0.01 0.01 75 1016.3
20200404003122 31 160 5.0 12.0 0.00 0.01 0.01 75 1016.2
20200404002620 31 130 7.0 12.0 0.00 0.01 0.01 75 1016.2
20200404002124 31 155 7.0 12.0 0.00 0.01 0.01 75 1016.2
20200404001620 31 130 9.0 14.0 0.00 0.01 0.01 74 1016.2
20200404001129 31 203 9.0 14.0 0.00 0.01 0.01 74 1016.1
20200404000622 31 152 8.0 14.0 0.00 0.01 0.01 75 1016.1
20200404000122 31 148 9.0 12.0 0.00 0.01 0.01 75 1016.1
20200403235619 31 148 6.0 13.0 0.00 0.01 0.01 75 1016.1
20200403235128 31 171 6.0 13.0 0.00 0.01 0.01 75 1016.1
20200403234618 31 223 7.0 13.0 0.00 0.01 0.01 76 1016.2
20200403234123 31 206 8.0 14.0 0.00 0.01 0.01 76 1016.1
20200403233621 31 180 7.0 14.0 0.00 0.01 0.01 77 1016.1
20200403233127 32 198 4.0 18.0 0.00 0.01 0.01 78 1016.0
20200403232620 32 184 8.0 14.0 0.00 0.01 0.01 79 1016.0
20200403232129 32 182 7.0 15.0 0.00 0.01 0.01 78 1016.0
20200403231620 32 160 8.0 16.0 0.00 0.01 0.01 78 1015.9
20200403231126 32 143 10.0 16.0 0.00 0.01 0.01 76 1016.1
20200403230621 32 157 11.0 16.0 0.00 0.01 0.01 77 1016.1
20200403230123 32 136 10.0 16.0 0.00 0.01 0.01 76 1016.1
20200403225619 32 138 10.0 15.0 0.00 0.01 0.01 77 1016.1
20200403225125 31 150 11.0 16.0 0.00 0.01 0.01 77 1016.1
20200403224620 32 150 11.0 20.0 0.00 0.01 0.01 77 1016.1
20200403224131 32 153 13.0 20.0 0.00 0.01 0.01 77 1016.1
20200403223620 31 169 13.0 18.0 0.00 0.01 0.01 77 1016.2
20200403223123 31 148 11.0 18.0 0.00 0.01 0.01 77 1016.2
20200403222619 31 183 9.0 15.0 0.00 0.01 0.01 76 1016.2
20200403222125 31 156 10.0 14.0 0.00 0.01 0.01 75 1016.2
20200403221622 32 177 9.0 18.0 0.00 0.01 0.01 77 1016.3
20200403221123 31 168 8.0 18.0 0.00 0.01 0.01 78 1016.3
20200403220621 31 137 10.0 16.0 0.00 0.01 0.01 78 1016.4
20200403220123 31 168 10.0 14.0 0.00 0.01 0.01 78 1016.4
20200403215619 31 155 8.0 15.0 0.00 0.01 0.01 78 1016.5
20200403215125 31 152 8.0 15.0 0.00 0.01 0.01 78 1016.5
20200403214619 31 180 10.0 19.0 0.00 0.01 0.01 78 1016.5
20200403214123 32 171 10.0 19.0 0.00 0.01 0.01 79 1016.7
20200403213621 32 132 12.0 19.0 0.00 0.01 0.01 78 1016.7
20200403213122 32 164 8.0 18.0 0.00 0.01 0.01 79 1016.7
20200403212619 32 176 12.0 18.0 0.00 0.01 0.01 79 1016.7
20200403212124 32 139 14.0 18.0 0.00 0.01 0.01 79 1016.7
20200403211619 31 152 11.0 19.0 0.00 0.01 0.01 78 1016.9
20200403211123 32 152 11.0 19.0 0.00 0.01 0.01 80 1016.9
20200403210621 32 137 13.0 19.0 0.00 0.01 0.01 79 1016.9
20200403210122 32 164 10.0 21.0 0.00 0.01 0.01 81 1016.9
20200403205619 32 163 13.0 21.0 0.00 0.01 0.01 83 1017.0
20200403205123 32 140 10.0 20.0 0.00 0.01 0.01 84 1017.0
20200403204618 32 148 13.0 19.0 0.00 0.01 0.01 81 1017.0
20200403204125 32 157 12.0 19.0 0.00 0.01 0.01 81 1017.1
20200403203621 31 146 10.0 19.0 0.01 0.01 0.01 81 1017.3
20200403203122 31 169 9.0 20.0 0.01 0.01 0.01 80 1017.3
20200403202619 31 151 12.0 20.0 0.01 0.01 0.01 79 1017.5
20200403202122 31 141 12.0 20.0 0.01 0.01 0.01 81 1017.6
20200403201620 31 152 11.0 21.0 0.01 0.01 0.01 80 1017.6
20200403201122 31 140 10.0 15.0 0.01 0.01 0.01 82 1017.6
20200403200621 30 149 0.0 0.0 0.01 0.01 0.01 78 1017.8
20200403200122 30 179 0.0 0.0 0.01 0.01 0.01 80 1017.8
20200403195619 30 153 0.0 0.0 0.01 0.01 0.01 78 1017.9
20200403195124 30 153 0.0 0.0 0.01 0.01 0.01 77 1017.9
20200403194619 30 146 0.0 0.0 0.01 0.01 0.01 79 1018.0
20200403194122 29 143 0.0 0.0 0.01 0.01 0.01 78 1018.1
20200403193620 29 118 0.0 0.0 0.00 0.00 0.00 78 1018.2
20200403193125 29 108 0.0 0.0 0.00 0.00 0.00 76 1018.2
20200403192619 29 115 0.0 0.0 0.00 0.00 0.00 78 1018.2
20200403192123 29 111 0.0 0.0 0.00 0.00 0.00 78 1018.3
20200403191619 29 107 0.0 0.0 0.00 0.00 0.00 79 1018.4
20200403191127 29 144 0.0 0.0 0.00 0.00 0.00 75 1018.5
20200403190621 29 148 0.0 0.0 0.00 0.00 0.00 79 1018.5
20200403190123 29 123 0.0 0.0 0.00 0.00 0.00 74 1018.6
20200403185619 29 148 0.0 0.0 0.00 0.00 0.00 76 1018.7
20200403185123 29 134 0.0 0.0 0.00 0.00 0.00 79 1018.7
20200403184619 28 140 0.0 0.0 0.00 0.00 0.00 78 1018.8
20200403184121 28 127 0.0 0.0 0.00 0.00 0.00 76 1018.8
20200403183619 28 233 0.0 0.0 0.00 0.00 0.00 77 1018.9
20200403183123 28 233 0.0 0.0 0.00 0.00 0.00 79 1019.0
20200403182619 28 234 0.0 0.0 0.00 0.00 0.00 79 1019.0
20200403182124 28 233 0.0 0.0 0.00 0.00 0.00 79 1019.1
20200403181619 29 233 0.0 0.0 0.00 0.00 0.00 78 1019.1
20200403181125 28 233 0.0 0.0 0.00 0.00 0.00 79 1019.2
20200403180621 28 233 0.0 0.0 0.00 0.00 0.00 79 1019.3
20200403180124 28 235 0.0 0.0 0.00 0.00 0.00 79 1019.4
20200403175620 28 234 0.0 0.0 0.00 0.00 0.00 78 1019.5
20200403175124 28 234 0.0 0.0 0.00 0.00 0.00 81 1019.5
20200403174619 27 234 0.0 0.0 0.00 0.00 0.00 78 1019.6
20200403174123 27 234 0.0 0.0 0.00 0.00 0.00 81 1019.6
20200403173621 27 234 0.0 0.0 0.00 0.00 0.00 81 1019.7
20200403173122 26 235 0.0 0.0 0.00 0.00 0.00 80 1019.8
20200403172619 26 234 0.0 0.0 0.00 0.00 0.00 80 1019.8
20200403172124 26 234 0.0 0.0 0.00 0.00 0.00 80 1019.8
20200403171619 26 234 0.0 0.0 0.00 0.00 0.00 79 1019.9
20200403171124 26 235 0.0 0.0 0.00 0.00 0.00 81 1019.8
20200403170620 26 234 0.0 0.0 0.00 0.00 0.00 81 1019.9
20200403170123 26 235 0.0 0.0 0.00 0.00 0.00 80 1020.0
20200403165619 26 234 0.0 0.0 0.00 0.00 0.00 82 1020.0
20200403165127 26 234 0.0 0.0 0.00 0.00 0.00 83 1020.0
20200403164619 26 234 0.0 0.0 0.00 0.00 0.00 82 1020.0
20200403164122 26 234 0.0 0.0 0.00 0.00 0.00 82 1020.0
20200403163620 26 234 0.0 0.0 0.00 0.00 0.00 82 1020.0
20200403163122 26 234 0.0 0.0 0.00 0.00 0.00 84 1020.0
20200403162618 27 234 0.0 0.0 0.00 0.00 0.00 85 1020.0
20200403162125 27 234 0.0 0.0 0.00 0.00 0.00 87 1020.0
20200403161620 26 234 0.0 0.0 0.00 0.00 0.00 86 1020.0
20200403161122 26 234 0.0 0.0 0.00 0.00 0.00 86 1020.0
20200403160620 26 235 0.0 0.0 0.00 0.00 0.00 87 1019.9
20200403160122 26 235 0.0 0.0 0.00 0.00 0.00 87 1020.0
20200403155619 27 235 0.0 0.0 0.00 0.00 0.00 86 1019.9
20200403155122 28 234 0.0 0.0 0.00 0.00 0.00 88 1019.9
20200403154456 28 234 0.0 0.0 0.00 0.00 0.00 88 1020.0
20200403153959 28 234 0.0 0.0 0.00 0.00 0.00 89 1019.9
20200403153536 30 234 0.0 0.0 0.00 0.00 0.00 90 1019.9
20200403153123 30 235 0.0 0.0 0.00 0.00 0.00 91 1019.9
20200403152619 30 234 0.0 2.0 0.00 0.00 0.00 91 1019.9
20200403152122 30 234 1.0 2.0 0.00 0.00 0.00 93 1019.8
20200403151621 27 234 0.0 0.0 0.00 0.00 0.00 88 1019.7
20200403151122 25 236 0.0 0.0 0.00 0.00 0.00 87 1019.8
20200403150619 24 217 0.0 0.0 0.00 0.00 0.00 86 1019.8
20200403150123 24 221 0.0 0.0 0.00 0.00 0.00 87 1019.8
20200403145619 23 232 0.0 1.0 0.00 0.00 0.00 87 1019.7
20200403145125 23 232 0.0 1.0 0.00 0.00 0.00 87 1019.7
20200403144620 23 240 0.0 1.0 0.00 0.00 0.00 87 1019.6
20200403144122 23 214 0.0 1.0 0.00 0.00 0.00 87 1019.7
20200403143619 23 236 0.0 0.0 0.00 0.00 0.00 87 1019.8
20200403143123 23 234 0.0 1.0 0.00 0.00 0.00 88 1019.7
20200403142620 22 244 0.0 2.0 0.00 0.00 0.00 88 1019.7
20200403142123 22 238 0.0 4.0 0.00 0.00 0.00 88 1019.7
20200403141619 22 232 1.0 4.0 0.00 0.00 0.00 88 1019.7
20200403141123 22 222 1.0 5.0 0.00 0.00 0.00 88 1019.6
20200403140619 21 229 1.0 5.0 0.00 0.00 0.00 89 1019.6
20200403140124 21 227 2.0 4.0 0.00 0.00 0.00 89 1019.6
20200403135619 21 221 2.0 3.0 0.00 0.00 0.00 89 1019.6
20200403135124 21 221 1.0 4.0 0.00 0.00 0.00 90 1019.5
20200403134619 21 225 1.0 3.0 0.00 0.00 0.00 90 1019.4
20200403134125 20 201 2.0 4.0 0.00 0.00 0.00 90 1019.4
20200403133624 20 221 1.0 2.0 0.00 0.00 0.00 91 1019.4
20200403133123 20 232 1.0 2.0 0.00 0.00 0.00 91 1019.3
20200403132619 20 201 0.0 2.0 0.00 0.00 0.00 91 1019.2
20200403132122 20 210 0.0 1.0 0.00 0.00 0.00 91 1019.2
20200403131620 19 242 0.0 1.0 0.00 0.00 0.00 92 1019.1
20200403131122 19 232 0.0 2.0 0.00 0.00 0.00 92 1019.1
20200403130619 19 221 1.0 2.0 0.00 0.00 0.00 92 1019.0
20200403130123 19 219 0.0 1.0 0.00 0.00 0.00 92 1018.8
20200403125619 19 226 0.0 1.0 0.00 0.00 0.00 92 1018.8
20200403125122 18 217 0.0 1.0 0.00 0.00 0.00 92 1018.8
20200403124456 18 213 0.0 1.0 0.00 0.00 0.00 92 1018.8
20200403124104 18 230 0.0 1.0 0.00 0.00 0.00 92 1018.8
20200403123620 18 221 0.0 2.0 0.00 0.00 0.00 92 1018.7
20200403123123 18 188 0.0 4.0 0.00 0.00 0.00 92 1018.7
20200403122619 17 205 1.0 4.0 0.00 0.00 0.00 92 1018.7
20200403122124 17 215 1.0 3.0 0.00 0.00 0.00 92 1018.7
20200403121619 17 227 1.0 2.0 0.00 0.00 0.00 92 1018.7
20200403121122 16 213 0.0 4.0 0.00 0.00 0.00 92 1018.6
20200403120631 16 236 1.0 5.0 0.00 0.00 0.00 92 1018.6
20200403120126 16 226 3.0 5.0 0.00 0.00 0.00 92 1018.6
20200403115619 15 232 1.0 4.0 0.00 0.00 0.00 92 1018.7
20200403115123 14 215 2.0 2.0 0.00 0.00 0.00 92 1018.7
20200403114619 14 206 0.0 1.0 0.00 0.00 0.00 91 1018.6
20200403114121 14 219 0.0 1.0 0.00 0.00 0.00 91 1018.6
20200403113621 13 229 0.0 0.0 0.00 0.00 0.00 90 1018.8
20200403113001 14 48 0.0 0.0 0.00 0.00 0.00 86 1018.7
20200403112456 13 48 0.0 0.0 0.00 0.00 0.00 86 1018.7
20200403112035 13 48 0.0 0.0 0.00 0.00 0.00 85 1018.8
20200403111619 13 48 0.0 0.0 0.00 0.00 0.00 85 1018.8
20200403111123 13 48 0.0 0.0 0.00 0.00 0.00 85 1018.8
20200403110619 13 48 0.0 0.0 0.00 0.00 0.00 85 1018.8
20200403105619 12 48 0.0 0.0 0.00 0.00 0.00 85 1018.8
20200403104619 12 48 0.0 0.0 0.00 0.00 0.00 85 1018.8
20200403104123 12 48 0.0 0.0 0.00 0.00 0.00 85 1018.8
20200403103619 12 48 0.0 0.0 0.00 0.00 0.00 85 1018.8
20200403103122 12 48 0.0 0.0 0.00 0.00 0.00 85 1018.8
20200403102620 12 48 0.0 0.0 0.00 0.00 0.00 85 1018.7
20200403102125 12 48 0.0 0.0 0.00 0.00 0.00 85 1018.6
20200403101619 12 48 0.0 0.0 0.00 0.00 0.00 85 1018.6
20200403101123 12 48 0.0 0.0 0.00 0.00 0.00 85 1018.6
20200403100619 12 48 0.0 0.0 0.00 0.00 0.00 85 1018.5
20200403100124 12 48 0.0 0.0 0.00 0.00 0.00 85 1018.7
20200403095622 12 48 0.0 0.0 0.00 0.00 0.00 85 1018.5
20200403095126 12 48 0.0 0.0 0.00 0.00 0.00 85 1018.6
20200403094618 12 48 0.0 0.0 0.00 0.00 0.00 90 1018.6
20200403094124 12 142 1.0 4.0 0.00 0.00 0.00 90 1018.7
20200403093619 12 131 2.0 2.0 0.00 0.00 0.00 90 1018.8
20200403093121 12 136 1.0 2.0 0.00 0.00 0.00 90 1018.8
20200403092620 12 133 1.0 2.0 0.00 0.00 0.00 90 1018.8
20200403092124 12 133 1.0 1.0 0.00 0.00 0.00 90 1018.9
20200403091619 12 117 0.0 1.0 0.00 0.00 0.00 90 1019.0
20200403091125 12 132 0.0 1.0 0.00 0.00 0.00 90 1019.2
20200403090619 12 123 0.0 1.0 0.00 0.00 0.00 90 1019.0
20200403090123 12 117 0.0 0.0 0.00 0.00 0.00 90 1019.0
20200403085620 12 46 0.0 0.0 0.00 0.00 0.00 90 1019.1
20200403085122 12 46 0.0 0.0 0.00 0.00 0.00 90 1019.0
20200403084619 12 45 0.0 0.0 0.00 0.00 0.00 90 1019.1
20200403084124 12 42 0.0 0.0 0.00 0.00 0.00 90 1019.0
20200403083619 12 42 0.0 0.0 0.00 0.00 0.00 90 1019.2
20200403083122 12 43 0.0 0.0 0.00 0.00 0.00 90 1019.2
20200403082620 12 43 0.0 0.0 0.00 0.00 0.00 90 1019.2
20200403082122 12 43 0.0 0.0 0.00 0.00 0.00 90 1019.2
20200403081619 12 42 0.0 1.0 0.00 0.00 0.00 89 1019.4